Vertical_Velocity
2 -1 0 -1 -2 -1 1 2 3 1 0 3 0 -3 -1 -3 -2 -1 -1 1 0 -2 3 1 5 2 3 -3 -1 0 -0 -4 -2 3 -0 -3 -1 -1 -4 -1 -1 -0 2 0 2
1 -1 0 1 -0 0 1 -0 -1 0 1 -2 -3 -1 -1 1 -1 -3 5 -0 5 -4 2 6 4 2 0 -1 -3 0 -2 -5 0 2 4 -5 -3 -2 -2 0 -0 1 3 2 0
-1 -0 -2 0 -2 -0 -0 1 0 0 0 1 -2 -1 -0 2 1 -2 3 0 -2 0 1 2 3 3 4 2 -3 -2 -13 6 -3 0 5 -1 -2 -7 -0 -0 4 0 1 1 -0
1 -0 -3 -1 -3 -1 -1 0 -2 -1 -1 -1 1 -0 1 1 -3 -1 -6 -5 -1 -7 -3 0 8 -1 3 -1 -0 -5 -2 -0 5 -3 -1 1 -4 -9 -1 -5 3 1 1 3 1
1 1 0 -3 -1 -1 -1 0 -2 -0 -1 -1 1 -0 -1 0 -2 -4 -4 -4 -2 -1 -6 1 -2 6 -3 -0 4 -8 7 -5 2 -1 -1 -2 -4 -2 -5 0 3 1 -2 -3 -1
-0 2 -0 -0 -2 -1 -1 0 1 0 -1 -0 3 -1 1 -1 -6 7 -5 -4 -6 -3 -4 -2 1 10 1 1 -0 -1 3 -5 -2 2 -4 -2 -3 2 2 -3 8 -5 -1 -3 -1
-2 1 1 0 -3 -5 -1 -2 1 -1 1 -1 1 -0 2 -3 -1 -1 -1 0 -3 -8 -3 2 1 20 6 12 1 7 -3 -1 -10 3 -8 3 -4 -19 5 -2 -2 -5 -2 0 -1
1 3 0 -1 -3 -2 -2 -4 0 1 0 2 -6 -1 -14 0 -1 -3 3 -3 -1 -6 1 8 -2 17 -1 9 4 -1 5 7 -6 2 -4 10 -12 -6 2 -1 1 2 1 -0 -0
2 3 -0 -3 -3 -2 -1 -3 -0 2 1 1 0 1 -6 -2 -6 5 -6 1 2 10 0 9 6 7 17 7 8 4 -3 -10 12 -8 4 4 -1 -0 2 1 -1 2 1 0 -1
2 2 -2 -1 -0 2 0 -3 1 -5 3 -2 -2 2 -10 2 -7 -3 -1 2 -0 13 8 5 -10 9 -2 -10 -21 -4 -5 3 -7 3 2 6 -4 -4 2 -0 2 -0 -0 1 0
2 2 2 -0 3 -1 1 -2 0 5 -7 3 2 5 3 -1 -4 -1 1 6 -4 10 -2 -6 1 -21 -18 8 -4 -2 4 -0 -3 3 4 1 3 -6 4 0 2 1 1 -0 -2
1 2 3 2 -4 3 0 -3 2 -1 6 4 -1 1 -2 -3 -5 -3 -3 -2 -6 -31 10 27 -25 -2 18 7 -1 7 2 -3 15 -2 3 2 -2 -8 -0 -0 2 1 2 -0 -3
1 2 3 1 -2 -1 1 2 7 3 13 -9 3 2 -1 4 -2 7 -2 1 2 15 2 -20 -45 -1 14 -8 4 -1 1 0 6 -4 -4 -2 -15 -4 -3 1 2 2 1 -2 -2
1 2 1 3 -1 1 3 6 4 10 21 -8 -5 -10 -14 9 -18 6 -8 8 -4 -5 4 12 10 -6 4 5 -3 -1 -4 3 1 -1 9 -4 -5 -4 4 1 1 3 2 -0 1
2 2 2 3 2 1 -1 5 2 27 6 -0 -1 2 -0 -7 -2 -6 2 -4 -4 15 -5 -20 -5 12 2 -17 -3 -6 -5 2 3 0 -2 1 4 -5 2 2 -0 -2 -1 1 3
2 2 2 3 2 2 -1 8 7 12 -4 -1 2 -4 2 0 -1 14 2 9 13 19 9 27 13 7 5 -2 0 3 -3 2 -1 -2 5 -1 1 -3 3 -1 -1 1 0 1 1
2 3 0 2 6 -2 -0 6 8 4 -2 3 -2 2 3 -5 6 -2 -0 -13 -4 2 -1 -2 6 -7 25 4 11 4 -0 2 6 4 -3 -4 3 -11 7 2 -1 3 0 0 -1
3 2 1 6 2 3 10 17 9 1 -4 -3 -4 2 -5 -3 2 -3 3 1 -7 2 10 -4 31 -5 -2 -11 -17 -9 -13 -4 -3 -1 -1 -0 -3 5 -1 1 -1 0 1 4 0
3 1 -1 6 3 9 15 8 -6 -2 -1 -1 14 4 2 3 6 7 6 9 -6 1 -1 -10 11 4 4 6 -12 5 -5 7 -2 -5 3 -2 -5 3 -1 -1 -1 -0 0 2 1
2 0 3 3 2 9 9 -5 2 -1 -4 3 -3 -3 0 3 -6 7 -2 -9 -18 -1 16 -17 3 9 9 2 3 -4 -5 -1 -3 2 0 1 -2 6 1 0 0 1 2 -1 0
4 -1 -1 2 12 4 -7 -6 0 4 10 -7 3 -2 0 -7 -5 1 -5 5 -7 3 2 -2 9 8 2 -7 -19 15 1 -7 3 -2 1 -0 5 -2 -2 -1 -1 -1 2 2 2
3 -0 -5 3 -1 1 -2 -3 5 3 1 -5 5 5 2 1 -13 7 -3 -5 -3 2 -4 -7 18 -4 -5 7 -0 -4 -4 -8 -2 -1 -2 1 6 -0 -4 -4 1 -0 1 2 -0
2 -2 -2 6 1 -1 2 -3 6 8 -4 0 -1 5 3 -14 -10 -6 -3 0 -3 -8 -8 -5 4 1 5 6 10 1 -4 -3 2 4 -4 4 -1 1 -2 -5 -4 -2 -1 0 -1
5 0 0 -0 6 1 8 2 1 -3 1 4 9 4 0 -5 -3 -4 0 -3 -5 -6 2 8 3 -4 -16 -12 -11 -1 4 3 1 5 -3 -13 3 -5 -3 -4 -3 0 -1 -1 1
3 0 1 -4 -6 1 15 3 6 -1 4 15 5 -0 -7 -3 -0 -3 2 1 1 -1 -0 4 5 -0 -4 -4 1 -5 -3 -7 -9 -11 -2 -4 -13 4 3 -1 -0 -1 0 -1 -1
2 2 1 3 3 7 11 -6 2 -4 -3 -9 -6 -2 -1 -2 -12 -13 -7 -5 -17 3 11 1 -3 4 2 3 2 -2 3 7 2 3 3 3 -14 -1 -2 -1 -1 -0 -1 2 2
5 3 3 3 3 5 -2 -4 2 2 -5 -6 6 5 4 -6 5 -4 6 6 -1 -8 -1 5 3 -1 5 2 4 4 -14 -8 -0 2 -2 -9 7 -6 -2 1 -1 -3 0 2 1
Height
3090 3088 3087 3085 3084 3084 3085 3084 3084 3084 3085 3087 3089 3090 3092 3092 3093 3095 3098 3106 3109 3111 3117 3122 3127 3132 3135 3138 3142 3144 3146 3146 3148 3147 3149 3147 3148 3147 3148 3149 3149 3150 3150 3150 3149
3086 3084 3082 3081 3080 3079 3078 3078 3078 3078 3079 3081 3082 3084 3086 3086 3087 3085 3097 3099 3104 3104 3109 3115 3121 3125 3129 3133 3136 3139 3140 3141 3144 3145 3145 3144 3146 3144 3146 3145 3147 3147 3147 3146 3146
3080 3079 3078 3077 3075 3073 3072 3072 3071 3072 3073 3074 3076 3078 3079 3081 3080 3078 3090 3093 3097 3098 3101 3107 3113 3119 3123 3127 3129 3133 3133 3139 3139 3141 3141 3142 3143 3141 3141 3142 3144 3144 3143 3142 3143
3076 3075 3074 3072 3071 3068 3067 3066 3066 3066 3067 3068 3070 3071 3072 3075 3080 3072 3080 3086 3091 3095 3096 3100 3106 3110 3116 3118 3125 3127 3130 3133 3136 3137 3137 3138 3138 3138 3136 3138 3139 3139 3139 3140 3140
3072 3071 3070 3068 3066 3064 3062 3061 3061 3061 3062 3064 3064 3065 3066 3067 3069 3071 3076 3081 3086 3089 3093 3096 3101 3105 3110 3116 3122 3122 3128 3127 3131 3133 3132 3133 3133 3133 3130 3135 3134 3134 3134 3135 3135
3068 3067 3066 3064 3060 3058 3057 3055 3055 3056 3057 3059 3059 3059 3061 3060 3064 3070 3071 3075 3081 3084 3087 3091 3096 3102 3108 3113 3115 3119 3120 3122 3127 3128 3129 3129 3129 3125 3130 3131 3127 3128 3129 3129 3130
3063 3061 3060 3059 3056 3054 3052 3050 3050 3050 3052 3054 3054 3054 3052 3058 3060 3062 3065 3067 3073 3078 3081 3086 3094 3097 3102 3107 3110 3116 3117 3119 3121 3123 3124 3126 3122 3122 3126 3124 3123 3123 3124 3124 3125
3058 3056 3057 3055 3052 3050 3048 3046 3045 3046 3048 3049 3049 3050 3045 3053 3056 3055 3059 3063 3066 3069 3075 3081 3087 3090 3093 3102 3106 3110 3114 3114 3117 3119 3121 3122 3116 3121 3121 3119 3117 3117 3118 3118 3119
3053 3052 3051 3050 3048 3045 3044 3043 3042 3043 3043 3044 3045 3045 3043 3045 3048 3052 3053 3057 3060 3064 3068 3074 3079 3082 3090 3092 3102 3102 3103 3108 3113 3114 3116 3115 3115 3117 3116 3115 3114 3113 3114 3114 3115
3047 3046 3045 3045 3043 3040 3039 3039 3039 3039 3038 3038 3040 3044 3039 3040 3041 3043 3047 3052 3054 3059 3062 3065 3071 3076 3081 3085 3082 3093 3100 3103 3108 3111 3109 3110 3108 3110 3111 3110 3111 3110 3110 3111 3112
3042 3040 3040 3039 3038 3036 3034 3034 3035 3033 3030 3032 3032 3033 3034 3035 3037 3038 3040 3045 3048 3052 3053 3058 3064 3059 3071 3076 3088 3094 3097 3100 3105 3106 3106 3106 3105 3104 3106 3105 3106 3106 3107 3107 3109
3036 3035 3035 3033 3032 3031 3027 3024 3024 3027 3024 3026 3024 3027 3028 3030 3034 3034 3037 3040 3042 3043 3047 3053 3052 3059 3068 3076 3084 3089 3093 3097 3102 3101 3102 3102 3097 3098 3100 3100 3101 3101 3102 3103 3105
3031 3029 3029 3027 3025 3025 3022 3019 3020 3021 3019 3016 3017 3018 3021 3027 3028 3031 3034 3036 3037 3038 3037 3041 3045 3059 3064 3069 3078 3085 3089 3094 3098 3098 3099 3098 3092 3093 3094 3094 3094 3096 3097 3099 3101
3026 3023 3023 3021 3021 3019 3017 3015 3016 3016 3014 3009 3007 3008 3014 3020 3021 3026 3029 3035 3033 3033 3035 3041 3048 3052 3058 3063 3073 3080 3086 3091 3094 3097 3096 3096 3091 3089 3090 3088 3089 3090 3091 3093 3096
3020 3018 3017 3014 3014 3013 3014 3011 3010 3014 3012 3004 3002 3004 3007 3013 3018 3019 3024 3028 3029 3029 3035 3035 3041 3047 3052 3057 3070 3079 3083 3088 3092 3093 3094 3094 3094 3084 3082 3083 3082 3083 3084 3087 3091
3014 3012 3011 3010 3009 3009 3008 3006 3008 3011 3002 2998 2997 2998 3003 3008 3014 3017 3020 3024 3027 3030 3030 3036 3039 3045 3050 3058 3067 3074 3081 3087 3091 3092 3089 3087 3089 3078 3078 3078 3076 3076 3079 3084 3088
3008 3007 3005 3004 3006 3004 3002 3002 3006 3000 2997 2995 2994 2996 3000 3004 3010 3011 3013 3016 3020 3023 3026 3030 3034 3040 3049 3055 3063 3071 3077 3084 3089 3089 3081 3081 3084 3075 3076 3075 3076 3077 3078 3082 3085
3003 3002 3000 3000 2999 2999 2996 2998 2995 2989 2989 2990 2992 2996 2999 3003 3006 3008 3013 3017 3018 3020 3025 3027 3025 3033 3040 3048 3052 3063 3071 3071 3071 3073 3073 3078 3074 3071 3071 3072 3073 3075 3077 3080 3082
2998 2996 2995 2994 2992 2991 2992 2991 2986 2985 2987 2987 2991 2995 2998 3000 3004 3006 3009 3015 3016 3017 3023 3027 3025 3029 3040 3045 3055 3059 3065 3072 3073 3074 3074 3070 3070 3069 3069 3070 3070 3071 3072 3075 3079
2992 2992 2992 2989 2987 2985 2986 2984 2982 2982 2984 2985 2988 2990 2993 2998 3001 3004 3008 3011 3013 3015 3020 3025 3027 3033 3036 3046 3053 3057 3064 3071 3071 3070 3069 3065 3067 3066 3068 3068 3067 3067 3068 3072 3076
2988 2987 2986 2984 2981 2981 2979 2979 2979 2980 2981 2984 2987 2988 2992 2994 2999 3003 3006 3007 3012 3017 3019 3026 3028 3033 3040 3043 3047 3053 3057 3062 3067 3068 3060 3060 3062 3063 3065 3065 3064 3064 3066 3069 3073
2983 2984 2982 2981 2980 2976 2974 2975 2977 2977 2978 2982 2986 2988 2991 2994 2997 3002 3004 3005 3010 3016 3020 3024 3028 3033 3038 3042 3047 3051 3054 3059 3063 3066 3065 3064 3062 3061 3063 3063 3062 3063 3064 3068 3072
2978 2980 2979 2976 2975 2971 2972 2973 2974 2976 2977 2979 2983 2987 2989 2992 2998 2999 3003 3006 3010 3015 3019 3024 3029 3034 3041 3045 3046 3047 3051 3056 3060 3059 3059 3061 3060 3059 3061 3062 3063 3063 3064 3066 3069
2975 2976 2974 2972 2971 2970 2971 2970 2971 2973 2977 2979 2982 2985 2988 2992 2995 2998 3001 3004 3009 3014 3021 3025 3025 3028 3029 3033 3039 3041 3044 3049 3053 3055 3055 3055 3057 3058 3059 3062 3063 3064 3065 3066 3067
2970 2971 2971 2967 2967 2967 2967 2967 2969 2971 2974 2976 2980 2983 2986 2990 2994 2996 2999 3003 3008 3012 3019 3023 3025 3027 3029 3031 3034 3035 3038 3041 3044 3049 3050 3051 3051 3054 3057 3058 3060 3062 3062 3063 3063
2965 2967 2967 2966 2964 2963 2961 2962 2965 2968 2969 2972 2975 2979 2984 2987 2990 2992 2996 3000 3002 3010 3016 3021 3025 3026 3027 3029 3031 3032 3033 3035 3038 3042 3044 3048 3046 3048 3051 3052 3055 3056 3057 3058 3059
2961 2963 2964 2963 2962 2960 2957 2959 2959 2963 2967 2970 2974 2978 2981 2985 2990 2994 2998 3000 3002 3006 3012 3020 3022 3025 3026 3026 3028 3030 3026 3028 3032 3035 3037 3039 3038 3044 3045 3047 3049 3051 3052 3053 3055